Weather History for Buckhannon, WV

Change the Weather History Date:

Wednesday, February 13, 2013

  Actual Average (KEKN) Record (KEKN)
Temperature  
Mean Temperature 37 °F 32 °F  
Max Temperature 44 °F 42 °F 65 °F (1938)
Min Temperature 30 °F 21 °F -11 °F (1983)
Degree Days  
Heating Degree Days 28 33  
Month to date heating degree days 445  
Since 1 July heating degree days 3846  
Cooling Degree Days 0 0  
Month to date cooling degree days 0  
Year to date cooling degree days 0  
Moisture  
Dew Point 27 °F    
Average Humidity 77    
Maximum Humidity 100    
Minimum Humidity 39    
Precipitation  
Precipitation 1.02 in 0.11 in 1.11 in (1971)
Month to date precipitation 1.39  
Year to date precipitation 4.62  
Snow  
Snow 0.00 in - - ()
Month to date snowfall  
Since 1 September snowfall  
Snow Depth -    
Sea Level Pressure  
Sea Level Pressure 29.76 in    
Wind  
Wind Speed 3 mph (West)    
Max Wind Speed 13 mph    
Max Gust Speed 18 mph    
Visibility 8 miles    
Events Rain , Snow    
T = Trace of Precipitation, MM = Missing Value Source: NWS Daily Summary

Daily Weather History Graph

Daily Weather History Graph

Search for Another Location

Airport:

Trip Planner

Search our weather history database for the weather conditions in past years. The results will help you decide how hot, cold, wet, or windy it might be!

Date:

Astronomy

Feb. 13, 2013 Rise Set
Actual Time 7:14 AM EST 5:56 PM EST
Civil Twilight 6:47 AM EST 6:23 PM EST
Nautical Twilight 6:15 AM EST 6:55 PM EST
Astronomical Twilight 5:44 AM EST 7:26 PM EST
Moon 8:45 AM EST (2/13) 9:55 PM EST (2/13)
Length of Visible Light 11h 36m
Length of Day
10h 41m
Waxing Crescent, 13% of the Moon is Illuminated
Feb 13
Waxing Crescent
Feb 17
First Quarter
Feb 25
Full
Mar 4
Last Quarter
Mar 11
New

Hourly Weather History & Observations

Time (EST) Temp. Windchill Dew Point Humidity Pressure Visibility Wind Dir Wind Speed Gust Speed Precip Events Conditions
12:15 AM 32.0 °F - 23.0 °F 69% 29.92 in 10.0 mi Calm Calm - N/A   Clear
12:35 AM 32.0 °F 28.7 °F 21.2 °F 64% 29.90 in 10.0 mi East 3.5 mph - N/A   Clear
12:55 AM 32.0 °F - 21.2 °F 64% 29.90 in 10.0 mi Calm Calm - N/A   Clear
1:15 AM 32.0 °F - 21.2 °F 64% 29.89 in 10.0 mi Calm Calm - N/A   Clear
1:35 AM 32.0 °F - 21.2 °F 64% 29.89 in 10.0 mi Calm Calm - N/A   Clear
1:55 AM 32.0 °F - 23.0 °F 69% 29.88 in 10.0 mi Calm Calm - N/A   Clear
2:15 AM 32.0 °F - 23.0 °F 69% 29.87 in 10.0 mi Calm Calm - N/A   Clear
2:35 AM 32.0 °F - 21.2 °F 64% 29.86 in 10.0 mi Calm Calm - N/A   Clear
2:55 AM 32.0 °F - 21.2 °F 64% 29.85 in 10.0 mi Calm Calm - N/A   Clear
3:15 AM 32.0 °F - 21.2 °F 64% 29.85 in 10.0 mi Calm Calm - N/A   Clear
3:35 AM 32.0 °F - 23.0 °F 69% 29.84 in 10.0 mi Calm Calm - N/A   Clear
3:55 AM 32.0 °F - 23.0 °F 69% 29.84 in 10.0 mi Calm Calm - N/A   Clear
4:15 AM 32.0 °F - 23.0 °F 69% 29.84 in 10.0 mi Calm Calm - N/A   Partly Cloudy
4:35 AM 32.0 °F - 23.0 °F 69% 29.83 in 10.0 mi Calm Calm - N/A   Partly Cloudy
4:55 AM 32.0 °F - 23.0 °F 69% 29.83 in 10.0 mi Calm Calm - N/A   Clear
5:15 AM 32.0 °F - 23.0 °F 69% 29.83 in 10.0 mi Calm Calm - N/A   Clear
5:35 AM 32.0 °F - 23.0 °F 69% 29.81 in 10.0 mi Calm Calm - N/A   Clear
5:55 AM 30.2 °F 26.7 °F 24.8 °F 80% 29.80 in 10.0 mi ENE 3.5 mph - N/A   Partly Cloudy
6:15 AM 32.0 °F - 23.0 °F 69% 29.79 in 10.0 mi Calm Calm - N/A   Clear
6:55 AM 32.0 °F - 24.8 °F 75% 29.78 in 10.0 mi Calm Calm - N/A   Clear
7:15 AM 32.0 °F - 23.0 °F 69% 29.78 in 10.0 mi Calm Calm - N/A   Partly Cloudy
7:35 AM 32.0 °F 25.6 °F 23.0 °F 69% 29.77 in 10.0 mi ESE 6.9 mph - N/A   Mostly Cloudy
7:55 AM 32.0 °F - 24.8 °F 75% 29.76 in 10.0 mi Calm Calm - N/A   Mostly Cloudy
8:15 AM 32.0 °F - 24.8 °F 75% 29.73 in 10.0 mi Calm Calm - N/A   Scattered Clouds
8:35 AM 33.8 °F - 23.0 °F 65% 29.75 in 10.0 mi Calm Calm - N/A   Scattered Clouds
8:55 AM 33.8 °F - 26.6 °F 75% 29.74 in 10.0 mi Calm Calm - N/A   Mostly Cloudy
9:15 AM 35.6 °F - 23.0 °F 60% 29.73 in 10.0 mi Calm Calm - N/A   Scattered Clouds
9:35 AM 37.4 °F - 23.0 °F 56% 29.71 in 10.0 mi Calm Calm - N/A   Partly Cloudy
9:55 AM 39.2 °F 35.9 °F 24.8 °F 56% 29.70 in 10.0 mi ENE 4.6 mph - N/A   Clear
10:15 AM 41.0 °F 36.4 °F 23.0 °F 49% 29.67 in 10.0 mi East 6.9 mph - N/A   Clear
10:35 AM 41.0 °F - 23.0 °F 49% 29.69 in 10.0 mi Calm Calm - N/A   Clear
10:55 AM 42.8 °F 41.1 °F 23.0 °F 46% 29.70 in 10.0 mi NNE 3.5 mph - N/A   Clear
11:15 AM 42.8 °F 41.1 °F 23.0 °F 46% 29.69 in 10.0 mi NE 3.5 mph - N/A   Clear
11:35 AM 44.6 °F - 21.2 °F 39% 29.68 in 10.0 mi Calm Calm - N/A   Clear
11:55 AM 44.6 °F 42.2 °F 23.0 °F 43% 29.68 in 10.0 mi SE 4.6 mph - N/A   Clear
12:15 PM 44.6 °F - 21.2 °F 39% 29.67 in 10.0 mi Calm Calm - N/A   Clear
12:35 PM 44.6 °F - 21.2 °F 39% 29.66 in 10.0 mi Calm Calm - N/A   Clear
12:55 PM 44.6 °F 40.7 °F 26.6 °F 49% 29.64 in 10.0 mi South 6.9 mph - N/A   Clear
1:15 PM 44.6 °F 39.2 °F 30.2 °F 57% 29.64 in 10.0 mi South 10.4 mph - N/A   Clear
1:35 PM 42.8 °F 37.0 °F 32.0 °F 66% 29.63 in 10.0 mi South 10.4 mph - N/A   Clear
1:55 PM 42.8 °F 36.6 °F 32.0 °F 66% 29.62 in 10.0 mi SSE 11.5 mph - N/A   Clear
2:15 PM 39.2 °F 32.0 °F 32.0 °F 75% 29.62 in 10.0 mi South 11.5 mph - N/A   Clear
2:35 PM 37.4 °F 30.8 °F 33.8 °F 87% 29.62 in 10.0 mi South 9.2 mph - N/A   Clear
2:55 PM 37.4 °F 32.8 °F 35.6 °F 93% 29.61 in 10.0 mi South 5.8 mph - N/A Rain Light Rain
3:15 PM 35.6 °F 28.6 °F 35.6 °F 100% 29.62 in 5.0 mi South 9.2 mph - N/A Rain Light Rain
3:35 PM 35.6 °F 30.7 °F 35.6 °F 100% 29.62 in 3.0 mi South 5.8 mph - 0.01 in   Overcast
3:55 PM 35.6 °F 31.7 °F 35.6 °F 100% 29.63 in 4.0 mi SSW 4.6 mph - 0.02 in Rain Light Rain
4:15 PM 33.8 °F 29.6 °F 33.8 °F 100% 29.64 in 10.0 mi SW 4.6 mph - N/A   Light Drizzle
4:55 PM 33.8 °F 24.8 °F 33.8 °F 100% 29.66 in 1.2 mi NW 12.7 mph - 0.08 in   Overcast
5:15 PM 32.0 °F 23.0 °F 32.0 °F 100% 29.67 in 1.2 mi North 11.5 mph - 0.11 in Snow Light Snow
5:35 PM 32.0 °F 24.2 °F 32.0 °F 100% 29.69 in 1.2 mi North 9.2 mph - 0.20 in Snow Light Snow
5:55 PM 32.0 °F 27.5 °F 32.0 °F 100% 29.71 in 1.0 mi NNW 4.6 mph - 0.46 in Snow Light Snow
6:15 PM 32.0 °F 27.5 °F 32.0 °F 100% 29.72 in 2.5 mi WNW 4.6 mph - 0.04 in Snow Light Snow
6:55 PM 32.0 °F 27.5 °F 32.0 °F 100% 29.74 in 2.0 mi West 4.6 mph - 0.39 in Snow Light Snow
7:15 PM 32.0 °F 27.5 °F 32.0 °F 100% 29.75 in 6.0 mi West 4.6 mph - 0.01 in Snow Light Snow
7:35 PM 32.0 °F 27.5 °F 32.0 °F 100% 29.76 in 5.0 mi NW 4.6 mph - 0.01 in Snow Light Snow
7:55 PM 32.0 °F 26.4 °F 32.0 °F 100% 29.77 in 2.5 mi WNW 5.8 mph - 0.06 in Snow Light Snow
8:15 PM 32.0 °F 25.6 °F 32.0 °F 100% 29.78 in 5.0 mi WNW 6.9 mph - N/A   Overcast
8:35 PM 32.0 °F 24.8 °F 32.0 °F 100% 29.79 in 7.0 mi WNW 8.1 mph - N/A Rain Light Rain
8:55 PM 32.0 °F 23.0 °F 32.0 °F 100% 29.80 in 9.0 mi West 11.5 mph - N/A   Overcast
9:15 PM 32.0 °F 24.2 °F 32.0 °F 100% 29.80 in 8.0 mi West 9.2 mph - N/A Rain Light Rain
9:55 PM 32.0 °F 23.6 °F 32.0 °F 100% 29.82 in 3.0 mi West 10.4 mph - 0.01 in Snow Light Snow
10:15 PM 32.0 °F 24.8 °F 32.0 °F 100% 29.83 in 7.0 mi West 8.1 mph - N/A   Overcast
10:35 PM 32.0 °F 24.8 °F 32.0 °F 100% 29.84 in 9.0 mi West 8.1 mph - N/A   Overcast
10:55 PM 32.0 °F 23.6 °F 32.0 °F 100% 29.84 in 10.0 mi WNW 10.4 mph - N/A   Overcast
11:15 PM 32.0 °F 23.6 °F 32.0 °F 100% 29.85 in 5.0 mi West 10.4 mph - N/A   Overcast
11:35 PM 32.0 °F 25.6 °F 32.0 °F 100% 29.86 in 8.0 mi WNW 6.9 mph 18.4 mph N/A   Overcast
11:55 PM 32.0 °F 24.8 °F 32.0 °F 100% 29.86 in 9.0 mi WNW 8.1 mph - N/A   Overcast